Index of /20260508/WXO-DD/model_caps/3km/12/010
Name Last modified Size Description
Parent Directory -
20260508T12Z_MSC_CAPS_AbsoluteVorticity_IsbL-0250_RLatLon0.03_PT010H.grib2 2026-05-08 18:07 1.4M
20260508T12Z_MSC_CAPS_AbsoluteVorticity_IsbL-0500_RLatLon0.03_PT010H.grib2 2026-05-08 18:07 1.1M
20260508T12Z_MSC_CAPS_AbsoluteVorticity_IsbL-0700_RLatLon0.03_PT010H.grib2 2026-05-08 18:07 1.3M
20260508T12Z_MSC_CAPS_AbsoluteVorticity_IsbL-0850_RLatLon0.03_PT010H.grib2 2026-05-08 18:07 1.5M
20260508T12Z_MSC_CAPS_AbsoluteVorticity_IsbL-1000_RLatLon0.03_PT010H.grib2 2026-05-08 18:07 1.3M
20260508T12Z_MSC_CAPS_AirDensity_AGL-120m_RLatLon0.03_PT010H.grib2 2026-05-08 18:07 1.4M
20260508T12Z_MSC_CAPS_AirDensity_AGL-40m_RLatLon0.03_PT010H.grib2 2026-05-08 18:07 1.4M
20260508T12Z_MSC_CAPS_AirDensity_AGL-80m_RLatLon0.03_PT010H.grib2 2026-05-08 18:07 1.4M
20260508T12Z_MSC_CAPS_AirTemp_AGL-120m_RLatLon0.03_PT010H.grib2 2026-05-08 18:07 1.7M
20260508T12Z_MSC_CAPS_AirTemp_AGL-2m_RLatLon0.03_PT010H.grib2 2026-05-08 18:07 2.1M
20260508T12Z_MSC_CAPS_AirTemp_AGL-40m_RLatLon0.03_PT010H.grib2 2026-05-08 18:07 1.8M
20260508T12Z_MSC_CAPS_AirTemp_AGL-80m_RLatLon0.03_PT010H.grib2 2026-05-08 18:07 1.8M
20260508T12Z_MSC_CAPS_AirTemp_IsbL-0050_RLatLon0.03_PT010H.grib2 2026-05-08 18:07 686K
20260508T12Z_MSC_CAPS_AirTemp_IsbL-0100_RLatLon0.03_PT010H.grib2 2026-05-08 18:07 937K
20260508T12Z_MSC_CAPS_AirTemp_IsbL-0150_RLatLon0.03_PT010H.grib2 2026-05-08 18:07 743K
20260508T12Z_MSC_CAPS_AirTemp_IsbL-0175_RLatLon0.03_PT010H.grib2 2026-05-08 18:07 769K
20260508T12Z_MSC_CAPS_AirTemp_IsbL-0200_RLatLon0.03_PT010H.grib2 2026-05-08 18:07 791K
20260508T12Z_MSC_CAPS_AirTemp_IsbL-0225_RLatLon0.03_PT010H.grib2 2026-05-08 18:07 792K
20260508T12Z_MSC_CAPS_AirTemp_IsbL-0250_RLatLon0.03_PT010H.grib2 2026-05-08 18:07 780K
20260508T12Z_MSC_CAPS_AirTemp_IsbL-0275_RLatLon0.03_PT010H.grib2 2026-05-08 18:07 773K
20260508T12Z_MSC_CAPS_AirTemp_IsbL-0300_RLatLon0.03_PT010H.grib2 2026-05-08 18:07 1.0M
20260508T12Z_MSC_CAPS_AirTemp_IsbL-0350_RLatLon0.03_PT010H.grib2 2026-05-08 18:07 748K
20260508T12Z_MSC_CAPS_AirTemp_IsbL-0400_RLatLon0.03_PT010H.grib2 2026-05-08 18:07 752K
20260508T12Z_MSC_CAPS_AirTemp_IsbL-0450_RLatLon0.03_PT010H.grib2 2026-05-08 18:07 765K
20260508T12Z_MSC_CAPS_AirTemp_IsbL-0500_RLatLon0.03_PT010H.grib2 2026-05-08 18:07 783K
20260508T12Z_MSC_CAPS_AirTemp_IsbL-0550_RLatLon0.03_PT010H.grib2 2026-05-08 18:07 801K
20260508T12Z_MSC_CAPS_AirTemp_IsbL-0600_RLatLon0.03_PT010H.grib2 2026-05-08 18:07 819K
20260508T12Z_MSC_CAPS_AirTemp_IsbL-0650_RLatLon0.03_PT010H.grib2 2026-05-08 18:07 845K
20260508T12Z_MSC_CAPS_AirTemp_IsbL-0700_RLatLon0.03_PT010H.grib2 2026-05-08 18:07 876K
20260508T12Z_MSC_CAPS_AirTemp_IsbL-0750_RLatLon0.03_PT010H.grib2 2026-05-08 18:07 914K
20260508T12Z_MSC_CAPS_AirTemp_IsbL-0800_RLatLon0.03_PT010H.grib2 2026-05-08 18:07 943K
20260508T12Z_MSC_CAPS_AirTemp_IsbL-0850_RLatLon0.03_PT010H.grib2 2026-05-08 18:07 1.1M
20260508T12Z_MSC_CAPS_AirTemp_IsbL-0875_RLatLon0.03_PT010H.grib2 2026-05-08 18:07 1.1M
20260508T12Z_MSC_CAPS_AirTemp_IsbL-0900_RLatLon0.03_PT010H.grib2 2026-05-08 18:07 1.1M
20260508T12Z_MSC_CAPS_AirTemp_IsbL-0925_RLatLon0.03_PT010H.grib2 2026-05-08 18:07 1.1M
20260508T12Z_MSC_CAPS_AirTemp_IsbL-0950_RLatLon0.03_PT010H.grib2 2026-05-08 18:07 1.1M
20260508T12Z_MSC_CAPS_AirTemp_IsbL-0970_RLatLon0.03_PT010H.grib2 2026-05-08 18:07 1.1M
20260508T12Z_MSC_CAPS_AirTemp_IsbL-0985_RLatLon0.03_PT010H.grib2 2026-05-08 18:07 1.1M
20260508T12Z_MSC_CAPS_AirTemp_IsbL-1000_RLatLon0.03_PT010H.grib2 2026-05-08 18:07 1.1M
20260508T12Z_MSC_CAPS_AirTemp_IsbL-1015_RLatLon0.03_PT010H.grib2 2026-05-08 18:07 1.0M
20260508T12Z_MSC_CAPS_Albedo_Sfc_RLatLon0.03_PT010H.grib2 2026-05-08 18:07 2.7M
20260508T12Z_MSC_CAPS_CAPE_Sfc_RLatLon0.03_PT010H.grib2 2026-05-08 18:07 100K
20260508T12Z_MSC_CAPS_CloudWater_EAtm_RLatLon0.03_PT010H.grib2 2026-05-08 18:07 1.6M
20260508T12Z_MSC_CAPS_ConvectivePrecip-Accum_Sfc_RLatLon0.03_PT010H.grib2 2026-05-08 18:07 2.6M
20260508T12Z_MSC_CAPS_DewPointDepression_AGL-120m_RLatLon0.03_PT010H.grib2 2026-05-08 18:07 2.0M
20260508T12Z_MSC_CAPS_DewPointDepression_AGL-2m_RLatLon0.03_PT010H.grib2 2026-05-08 18:07 2.2M
20260508T12Z_MSC_CAPS_DewPointDepression_AGL-40m_RLatLon0.03_PT010H.grib2 2026-05-08 18:07 2.1M
20260508T12Z_MSC_CAPS_DewPointDepression_AGL-80m_RLatLon0.03_PT010H.grib2 2026-05-08 18:07 2.1M
20260508T12Z_MSC_CAPS_DewPointDepression_IsbL-0050_RLatLon0.03_PT010H.grib2 2026-05-08 18:07 3.3K
20260508T12Z_MSC_CAPS_DewPointDepression_IsbL-0100_RLatLon0.03_PT010H.grib2 2026-05-08 18:07 65K
20260508T12Z_MSC_CAPS_DewPointDepression_IsbL-0150_RLatLon0.03_PT010H.grib2 2026-05-08 18:07 77K
20260508T12Z_MSC_CAPS_DewPointDepression_IsbL-0175_RLatLon0.03_PT010H.grib2 2026-05-08 18:07 190K
20260508T12Z_MSC_CAPS_DewPointDepression_IsbL-0200_RLatLon0.03_PT010H.grib2 2026-05-08 18:07 418K
20260508T12Z_MSC_CAPS_DewPointDepression_IsbL-0225_RLatLon0.03_PT010H.grib2 2026-05-08 18:07 594K
20260508T12Z_MSC_CAPS_DewPointDepression_IsbL-0250_RLatLon0.03_PT010H.grib2 2026-05-08 18:07 836K
20260508T12Z_MSC_CAPS_DewPointDepression_IsbL-0275_RLatLon0.03_PT010H.grib2 2026-05-08 18:07 1.0M
20260508T12Z_MSC_CAPS_DewPointDepression_IsbL-0300_RLatLon0.03_PT010H.grib2 2026-05-08 18:07 1.0M
20260508T12Z_MSC_CAPS_DewPointDepression_IsbL-0350_RLatLon0.03_PT010H.grib2 2026-05-08 18:07 1.0M
20260508T12Z_MSC_CAPS_DewPointDepression_IsbL-0400_RLatLon0.03_PT010H.grib2 2026-05-08 18:07 1.1M
20260508T12Z_MSC_CAPS_DewPointDepression_IsbL-0450_RLatLon0.03_PT010H.grib2 2026-05-08 18:07 1.1M
20260508T12Z_MSC_CAPS_DewPointDepression_IsbL-0500_RLatLon0.03_PT010H.grib2 2026-05-08 18:07 1.1M
20260508T12Z_MSC_CAPS_DewPointDepression_IsbL-0550_RLatLon0.03_PT010H.grib2 2026-05-08 18:07 1.2M
20260508T12Z_MSC_CAPS_DewPointDepression_IsbL-0600_RLatLon0.03_PT010H.grib2 2026-05-08 18:07 1.2M
20260508T12Z_MSC_CAPS_DewPointDepression_IsbL-0650_RLatLon0.03_PT010H.grib2 2026-05-08 18:07 1.2M
20260508T12Z_MSC_CAPS_DewPointDepression_IsbL-0700_RLatLon0.03_PT010H.grib2 2026-05-08 18:07 1.3M
20260508T12Z_MSC_CAPS_DewPointDepression_IsbL-0750_RLatLon0.03_PT010H.grib2 2026-05-08 18:07 1.3M
20260508T12Z_MSC_CAPS_DewPointDepression_IsbL-0800_RLatLon0.03_PT010H.grib2 2026-05-08 18:07 1.3M
20260508T12Z_MSC_CAPS_DewPointDepression_IsbL-0850_RLatLon0.03_PT010H.grib2 2026-05-08 18:07 1.3M
20260508T12Z_MSC_CAPS_DewPointDepression_IsbL-0875_RLatLon0.03_PT010H.grib2 2026-05-08 18:07 1.3M
20260508T12Z_MSC_CAPS_DewPointDepression_IsbL-0900_RLatLon0.03_PT010H.grib2 2026-05-08 18:07 1.3M
20260508T12Z_MSC_CAPS_DewPointDepression_IsbL-0925_RLatLon0.03_PT010H.grib2 2026-05-08 18:07 1.3M
20260508T12Z_MSC_CAPS_DewPointDepression_IsbL-0950_RLatLon0.03_PT010H.grib2 2026-05-08 18:07 1.3M
20260508T12Z_MSC_CAPS_DewPointDepression_IsbL-0970_RLatLon0.03_PT010H.grib2 2026-05-08 18:07 1.3M
20260508T12Z_MSC_CAPS_DewPointDepression_IsbL-0985_RLatLon0.03_PT010H.grib2 2026-05-08 18:07 1.3M
20260508T12Z_MSC_CAPS_DewPointDepression_IsbL-1000_RLatLon0.03_PT010H.grib2 2026-05-08 18:07 1.3M
20260508T12Z_MSC_CAPS_DewPointDepression_IsbL-1015_RLatLon0.03_PT010H.grib2 2026-05-08 18:07 1.3M
20260508T12Z_MSC_CAPS_DewPoint_AGL-120m_RLatLon0.03_PT010H.grib2 2026-05-08 18:07 3.6M
20260508T12Z_MSC_CAPS_DewPoint_AGL-2m_RLatLon0.03_PT010H.grib2 2026-05-08 18:07 2.1M
20260508T12Z_MSC_CAPS_DewPoint_AGL-40m_RLatLon0.03_PT010H.grib2 2026-05-08 18:07 3.7M
20260508T12Z_MSC_CAPS_DewPoint_AGL-80m_RLatLon0.03_PT010H.grib2 2026-05-08 18:07 3.7M
20260508T12Z_MSC_CAPS_DownwardLongwaveRadiationFlux-Accum_Sfc_RLatLon0.03_PT010H.grib2 2026-05-08 18:07 2.3M
20260508T12Z_MSC_CAPS_DownwardShortwaveRadiationFlux-Accum_NTAtm_RLatLon0.03_PT010H.grib2 2026-05-08 18:07 479K
20260508T12Z_MSC_CAPS_DownwardShortwaveRadiationFlux-Accum_Sfc_RLatLon0.03_PT010H.grib2 2026-05-08 18:07 2.7M
20260508T12Z_MSC_CAPS_FreezingRain-Accum_Sfc_RLatLon0.03_PT010H.grib2 2026-05-08 18:07 310K
20260508T12Z_MSC_CAPS_GeopotentialHeight_IsbL-0050_RLatLon0.03_PT010H.grib2 2026-05-08 18:07 621K
20260508T12Z_MSC_CAPS_GeopotentialHeight_IsbL-0100_RLatLon0.03_PT010H.grib2 2026-05-08 18:07 736K
20260508T12Z_MSC_CAPS_GeopotentialHeight_IsbL-0150_RLatLon0.03_PT010H.grib2 2026-05-08 18:07 597K
20260508T12Z_MSC_CAPS_GeopotentialHeight_IsbL-0175_RLatLon0.03_PT010H.grib2 2026-05-08 18:07 719K
20260508T12Z_MSC_CAPS_GeopotentialHeight_IsbL-0200_RLatLon0.03_PT010H.grib2 2026-05-08 18:07 736K
20260508T12Z_MSC_CAPS_GeopotentialHeight_IsbL-0225_RLatLon0.03_PT010H.grib2 2026-05-08 18:07 744K
20260508T12Z_MSC_CAPS_GeopotentialHeight_IsbL-0250_RLatLon0.03_PT010H.grib2 2026-05-08 18:07 759K
20260508T12Z_MSC_CAPS_GeopotentialHeight_IsbL-0275_RLatLon0.03_PT010H.grib2 2026-05-08 18:07 769K
20260508T12Z_MSC_CAPS_GeopotentialHeight_IsbL-0300_RLatLon0.03_PT010H.grib2 2026-05-08 18:07 778K
20260508T12Z_MSC_CAPS_GeopotentialHeight_IsbL-0350_RLatLon0.03_PT010H.grib2 2026-05-08 18:07 776K
20260508T12Z_MSC_CAPS_GeopotentialHeight_IsbL-0400_RLatLon0.03_PT010H.grib2 2026-05-08 18:07 772K
20260508T12Z_MSC_CAPS_GeopotentialHeight_IsbL-0450_RLatLon0.03_PT010H.grib2 2026-05-08 18:07 764K
20260508T12Z_MSC_CAPS_GeopotentialHeight_IsbL-0500_RLatLon0.03_PT010H.grib2 2026-05-08 18:07 758K
20260508T12Z_MSC_CAPS_GeopotentialHeight_IsbL-0550_RLatLon0.03_PT010H.grib2 2026-05-08 18:07 750K
20260508T12Z_MSC_CAPS_GeopotentialHeight_IsbL-0600_RLatLon0.03_PT010H.grib2 2026-05-08 18:07 742K
20260508T12Z_MSC_CAPS_GeopotentialHeight_IsbL-0650_RLatLon0.03_PT010H.grib2 2026-05-08 18:07 638K
20260508T12Z_MSC_CAPS_GeopotentialHeight_IsbL-0700_RLatLon0.03_PT010H.grib2 2026-05-08 18:07 637K
20260508T12Z_MSC_CAPS_GeopotentialHeight_IsbL-0750_RLatLon0.03_PT010H.grib2 2026-05-08 18:07 635K
20260508T12Z_MSC_CAPS_GeopotentialHeight_IsbL-0800_RLatLon0.03_PT010H.grib2 2026-05-08 18:07 633K
20260508T12Z_MSC_CAPS_GeopotentialHeight_IsbL-0850_RLatLon0.03_PT010H.grib2 2026-05-08 18:07 821K
20260508T12Z_MSC_CAPS_GeopotentialHeight_IsbL-0875_RLatLon0.03_PT010H.grib2 2026-05-08 18:07 813K
20260508T12Z_MSC_CAPS_GeopotentialHeight_IsbL-0900_RLatLon0.03_PT010H.grib2 2026-05-08 18:07 836K
20260508T12Z_MSC_CAPS_GeopotentialHeight_IsbL-0925_RLatLon0.03_PT010H.grib2 2026-05-08 18:07 844K
20260508T12Z_MSC_CAPS_GeopotentialHeight_IsbL-0950_RLatLon0.03_PT010H.grib2 2026-05-08 18:07 846K
20260508T12Z_MSC_CAPS_GeopotentialHeight_IsbL-0970_RLatLon0.03_PT010H.grib2 2026-05-08 18:07 864K
20260508T12Z_MSC_CAPS_GeopotentialHeight_IsbL-0985_RLatLon0.03_PT010H.grib2 2026-05-08 18:07 872K
20260508T12Z_MSC_CAPS_GeopotentialHeight_IsbL-1000_RLatLon0.03_PT010H.grib2 2026-05-08 18:07 881K
20260508T12Z_MSC_CAPS_GeopotentialHeight_IsbL-1015_RLatLon0.03_PT010H.grib2 2026-05-08 18:07 876K
20260508T12Z_MSC_CAPS_GeopotentialHeight_Sfc_RLatLon0.03_PT010H.grib2 2026-05-08 18:07 1.0M
20260508T12Z_MSC_CAPS_IcePellets-Accum_Sfc_RLatLon0.03_PT010H.grib2 2026-05-08 18:07 6.5K
20260508T12Z_MSC_CAPS_LatentHeatNetFlux_Sfc_RLatLon0.03_PT010H.grib2 2026-05-08 18:07 2.0M
20260508T12Z_MSC_CAPS_LiftedIndex-MU-VT_IsbL-0500_RLatLon0.03_PT010H.grib2 2026-05-08 18:07 3.3M
20260508T12Z_MSC_CAPS_MixedLayerThickness_Sfc_RLatLon0.03_PT010H.nc 2026-05-08 18:12 16M
20260508T12Z_MSC_CAPS_NetLongwaveRadiationFlux-Accum_Sfc_RLatLon0.03_PT010H.grib2 2026-05-08 18:07 3.0M
20260508T12Z_MSC_CAPS_NetShortwaveRadiationFlux-Accum_Sfc_RLatLon0.03_PT010H.grib2 2026-05-08 18:07 2.7M
20260508T12Z_MSC_CAPS_PlanetaryBoundaryLayerHeight_Sfc_RLatLon0.03_PT010H.grib2 2026-05-08 18:07 3.0M
20260508T12Z_MSC_CAPS_Precip-Accum_Sfc_RLatLon0.03_PT010H.grib2 2026-05-08 18:07 3.6M
20260508T12Z_MSC_CAPS_PrecipRate_Sfc_RLatLon0.03_PT010H.grib2 2026-05-08 18:07 567K
20260508T12Z_MSC_CAPS_PrecipType-Instant_Sfc_RLatLon0.03_PT010H.grib2 2026-05-08 18:07 1.6M
20260508T12Z_MSC_CAPS_Pressure_MSL_RLatLon0.03_PT010H.grib2 2026-05-08 18:07 766K
20260508T12Z_MSC_CAPS_Pressure_Sfc_RLatLon0.03_PT010H.grib2 2026-05-08 18:07 1.2M
20260508T12Z_MSC_CAPS_RadiativeTemp_Sfc_RLatLon0.03_PT010H.grib2 2026-05-08 18:07 2.0M
20260508T12Z_MSC_CAPS_Rain-Accum_Sfc_RLatLon0.03_PT010H.grib2 2026-05-08 18:07 1.8M
20260508T12Z_MSC_CAPS_RelativeHumidity_AGL-120m_RLatLon0.03_PT010H.grib2 2026-05-08 18:07 2.8M
20260508T12Z_MSC_CAPS_RelativeHumidity_AGL-2m_RLatLon0.03_PT010H.grib2 2026-05-08 18:07 2.9M
20260508T12Z_MSC_CAPS_RelativeHumidity_AGL-40m_RLatLon0.03_PT010H.grib2 2026-05-08 18:07 2.9M
20260508T12Z_MSC_CAPS_RelativeHumidity_AGL-80m_RLatLon0.03_PT010H.grib2 2026-05-08 18:07 2.8M
20260508T12Z_MSC_CAPS_RelativeHumidity_IsbL-0050_RLatLon0.03_PT010H.grib2 2026-05-08 18:07 703K
20260508T12Z_MSC_CAPS_RelativeHumidity_IsbL-0100_RLatLon0.03_PT010H.grib2 2026-05-08 18:07 1.1M
20260508T12Z_MSC_CAPS_RelativeHumidity_IsbL-0150_RLatLon0.03_PT010H.grib2 2026-05-08 18:07 333K
20260508T12Z_MSC_CAPS_RelativeHumidity_IsbL-0175_RLatLon0.03_PT010H.grib2 2026-05-08 18:07 466K
20260508T12Z_MSC_CAPS_RelativeHumidity_IsbL-0200_RLatLon0.03_PT010H.grib2 2026-05-08 18:07 655K
20260508T12Z_MSC_CAPS_RelativeHumidity_IsbL-0225_RLatLon0.03_PT010H.grib2 2026-05-08 18:07 901K
20260508T12Z_MSC_CAPS_RelativeHumidity_IsbL-0250_RLatLon0.03_PT010H.grib2 2026-05-08 18:07 1.1M
20260508T12Z_MSC_CAPS_RelativeHumidity_IsbL-0275_RLatLon0.03_PT010H.grib2 2026-05-08 18:07 1.4M
20260508T12Z_MSC_CAPS_RelativeHumidity_IsbL-0300_RLatLon0.03_PT010H.grib2 2026-05-08 18:07 1.7M
20260508T12Z_MSC_CAPS_RelativeHumidity_IsbL-0350_RLatLon0.03_PT010H.grib2 2026-05-08 18:07 1.9M
20260508T12Z_MSC_CAPS_RelativeHumidity_IsbL-0400_RLatLon0.03_PT010H.grib2 2026-05-08 18:07 2.0M
20260508T12Z_MSC_CAPS_RelativeHumidity_IsbL-0450_RLatLon0.03_PT010H.grib2 2026-05-08 18:07 2.1M
20260508T12Z_MSC_CAPS_RelativeHumidity_IsbL-0500_RLatLon0.03_PT010H.grib2 2026-05-08 18:07 2.1M
20260508T12Z_MSC_CAPS_RelativeHumidity_IsbL-0550_RLatLon0.03_PT010H.grib2 2026-05-08 18:07 2.0M
20260508T12Z_MSC_CAPS_RelativeHumidity_IsbL-0600_RLatLon0.03_PT010H.grib2 2026-05-08 18:07 2.2M
20260508T12Z_MSC_CAPS_RelativeHumidity_IsbL-0650_RLatLon0.03_PT010H.grib2 2026-05-08 18:07 2.2M
20260508T12Z_MSC_CAPS_RelativeHumidity_IsbL-0700_RLatLon0.03_PT010H.grib2 2026-05-08 18:07 2.2M
20260508T12Z_MSC_CAPS_RelativeHumidity_IsbL-0750_RLatLon0.03_PT010H.grib2 2026-05-08 18:07 2.3M
20260508T12Z_MSC_CAPS_RelativeHumidity_IsbL-0800_RLatLon0.03_PT010H.grib2 2026-05-08 18:07 2.5M
20260508T12Z_MSC_CAPS_RelativeHumidity_IsbL-0850_RLatLon0.03_PT010H.grib2 2026-05-08 18:07 2.6M
20260508T12Z_MSC_CAPS_RelativeHumidity_IsbL-0875_RLatLon0.03_PT010H.grib2 2026-05-08 18:07 2.6M
20260508T12Z_MSC_CAPS_RelativeHumidity_IsbL-0900_RLatLon0.03_PT010H.grib2 2026-05-08 18:07 2.6M
20260508T12Z_MSC_CAPS_RelativeHumidity_IsbL-0925_RLatLon0.03_PT010H.grib2 2026-05-08 18:07 2.6M
20260508T12Z_MSC_CAPS_RelativeHumidity_IsbL-0950_RLatLon0.03_PT010H.grib2 2026-05-08 18:07 2.7M
20260508T12Z_MSC_CAPS_RelativeHumidity_IsbL-0970_RLatLon0.03_PT010H.grib2 2026-05-08 18:07 2.8M
20260508T12Z_MSC_CAPS_RelativeHumidity_IsbL-0985_RLatLon0.03_PT010H.grib2 2026-05-08 18:07 2.8M
20260508T12Z_MSC_CAPS_RelativeHumidity_IsbL-1000_RLatLon0.03_PT010H.grib2 2026-05-08 18:07 2.8M
20260508T12Z_MSC_CAPS_RelativeHumidity_IsbL-1015_RLatLon0.03_PT010H.grib2 2026-05-08 18:07 2.9M
20260508T12Z_MSC_CAPS_Runoff-Accum_Sfc_RLatLon0.03_PT010H.grib2 2026-05-08 18:07 249K
20260508T12Z_MSC_CAPS_SeaIceAreaFraction_Sfc_RLatLon0.03_PT010H.nc 2026-05-08 18:12 15M
20260508T12Z_MSC_CAPS_SeaIceCompressiveStrength_Sfc_RLatLon0.03_PT010H.nc 2026-05-08 18:12 15M
20260508T12Z_MSC_CAPS_SeaIceDivergence_Sfc_RLatLon0.03_PT010H.nc 2026-05-08 18:12 15M
20260508T12Z_MSC_CAPS_SeaIceInternalPressure_Sfc_RLatLon0.03_PT010H.nc 2026-05-08 18:12 15M
20260508T12Z_MSC_CAPS_SeaIceShear_Sfc_RLatLon0.03_PT010H.nc 2026-05-08 18:12 15M
20260508T12Z_MSC_CAPS_SeaIceSnowTemp_Sfc_RLatLon0.03_PT010H.nc 2026-05-08 18:12 14M
20260508T12Z_MSC_CAPS_SeaIceSnowVolume_Sfc_RLatLon0.03_PT010H.nc 2026-05-08 18:12 15M
20260508T12Z_MSC_CAPS_SeaIceVelocityX_Sfc_RLatLon0.03_PT010H.nc 2026-05-08 18:12 15M
20260508T12Z_MSC_CAPS_SeaIceVelocityY_Sfc_RLatLon0.03_PT010H.nc 2026-05-08 18:12 15M
20260508T12Z_MSC_CAPS_SeaIceVolume_Sfc_RLatLon0.03_PT010H.nc 2026-05-08 18:12 15M
20260508T12Z_MSC_CAPS_SeaSurfaceHeight_Sfc_RLatLon0.03_PT010H.nc 2026-05-08 18:12 16M
20260508T12Z_MSC_CAPS_SeaWaterSalinity_DBS-0.5m_RLatLon0.03_PT010H.nc 2026-05-08 18:12 16M
20260508T12Z_MSC_CAPS_SeaWaterSalinity_DBS-all_RLatLon0.03_PT010H.nc 2026-05-08 18:12 107M
20260508T12Z_MSC_CAPS_SeaWaterTemp_DBS-0.5m_RLatLon0.03_PT010H.nc 2026-05-08 18:12 15M
20260508T12Z_MSC_CAPS_SeaWaterTemp_DBS-all_RLatLon0.03_PT010H.nc 2026-05-08 18:12 88M
20260508T12Z_MSC_CAPS_SeaWaterVelocityX_DBS-0.5m_RLatLon0.03_PT010H.nc 2026-05-08 18:12 17M
20260508T12Z_MSC_CAPS_SeaWaterVelocityX_DBS-all_RLatLon0.03_PT010H.nc 2026-05-08 18:12 207M
20260508T12Z_MSC_CAPS_SeaWaterVelocityY_DBS-0.5m_RLatLon0.03_PT010H.nc 2026-05-08 18:12 18M
20260508T12Z_MSC_CAPS_SeaWaterVelocityY_DBS-all_RLatLon0.03_PT010H.nc 2026-05-08 18:12 217M
20260508T12Z_MSC_CAPS_SensibleHeatNetFlux_Sfc_RLatLon0.03_PT010H.grib2 2026-05-08 18:07 1.8M
20260508T12Z_MSC_CAPS_ShowalterIndex_IsbL-0500_RLatLon0.03_PT010H.grib2 2026-05-08 18:07 4.3M
20260508T12Z_MSC_CAPS_Snow-Accum_Sfc_RLatLon0.03_PT010H.grib2 2026-05-08 18:07 2.4M
20260508T12Z_MSC_CAPS_SnowDensity_Sfc_RLatLon0.03_PT010H.grib2 2026-05-08 18:07 1.2M
20260508T12Z_MSC_CAPS_SnowDepthWaterEquivalent_Sfc_RLatLon0.03_PT010H.grib2 2026-05-08 18:07 637K
20260508T12Z_MSC_CAPS_SnowDepth_Sfc_RLatLon0.03_PT010H.grib2 2026-05-08 18:07 1.1M
20260508T12Z_MSC_CAPS_SoilTemp_DBS-0to10cm_RLatLon0.03_PT010H.grib2 2026-05-08 18:07 1.5M
20260508T12Z_MSC_CAPS_SoilTemp_Sfc_RLatLon0.03_PT010H.grib2 2026-05-08 18:07 1.9M
20260508T12Z_MSC_CAPS_SoilVolumetricIceContent_Sfc_RLatLon0.03_PT010H.grib2 2026-05-08 18:07 1.3M
20260508T12Z_MSC_CAPS_SoilVolumetricWaterContent_DBS-0to10cm_RLatLon0.03_PT010H.grib2 2026-05-08 18:07 1.3M
20260508T12Z_MSC_CAPS_SoilVolumetricWaterContent_DBS-0to1cm_RLatLon0.03_PT010H.grib2 2026-05-08 18:07 1.7M
20260508T12Z_MSC_CAPS_SpecificHumidity_AGL-120m_RLatLon0.03_PT010H.grib2 2026-05-08 18:07 1.8M
20260508T12Z_MSC_CAPS_SpecificHumidity_AGL-2m_RLatLon0.03_PT010H.grib2 2026-05-08 18:07 2.1M
20260508T12Z_MSC_CAPS_SpecificHumidity_AGL-40m_RLatLon0.03_PT010H.grib2 2026-05-08 18:07 1.9M
20260508T12Z_MSC_CAPS_SpecificHumidity_AGL-80m_RLatLon0.03_PT010H.grib2 2026-05-08 18:07 1.9M
20260508T12Z_MSC_CAPS_SpecificHumidity_IsbL-0050_RLatLon0.03_PT010H.grib2 2026-05-08 18:07 877K
20260508T12Z_MSC_CAPS_SpecificHumidity_IsbL-0100_RLatLon0.03_PT010H.grib2 2026-05-08 18:07 1.0M
20260508T12Z_MSC_CAPS_SpecificHumidity_IsbL-0150_RLatLon0.03_PT010H.grib2 2026-05-08 18:07 746K
20260508T12Z_MSC_CAPS_SpecificHumidity_IsbL-0175_RLatLon0.03_PT010H.grib2 2026-05-08 18:07 1.0M
20260508T12Z_MSC_CAPS_SpecificHumidity_IsbL-0200_RLatLon0.03_PT010H.grib2 2026-05-08 18:07 887K
20260508T12Z_MSC_CAPS_SpecificHumidity_IsbL-0225_RLatLon0.03_PT010H.grib2 2026-05-08 18:07 860K
20260508T12Z_MSC_CAPS_SpecificHumidity_IsbL-0250_RLatLon0.03_PT010H.grib2 2026-05-08 18:07 864K
20260508T12Z_MSC_CAPS_SpecificHumidity_IsbL-0275_RLatLon0.03_PT010H.grib2 2026-05-08 18:07 1.1M
20260508T12Z_MSC_CAPS_SpecificHumidity_IsbL-0300_RLatLon0.03_PT010H.grib2 2026-05-08 18:07 1.1M
20260508T12Z_MSC_CAPS_SpecificHumidity_IsbL-0350_RLatLon0.03_PT010H.grib2 2026-05-08 18:07 1.0M
20260508T12Z_MSC_CAPS_SpecificHumidity_IsbL-0400_RLatLon0.03_PT010H.grib2 2026-05-08 18:07 1.0M
20260508T12Z_MSC_CAPS_SpecificHumidity_IsbL-0450_RLatLon0.03_PT010H.grib2 2026-05-08 18:07 942K
20260508T12Z_MSC_CAPS_SpecificHumidity_IsbL-0500_RLatLon0.03_PT010H.grib2 2026-05-08 18:07 1.1M
20260508T12Z_MSC_CAPS_SpecificHumidity_IsbL-0550_RLatLon0.03_PT010H.grib2 2026-05-08 18:07 1.2M
20260508T12Z_MSC_CAPS_SpecificHumidity_IsbL-0600_RLatLon0.03_PT010H.grib2 2026-05-08 18:07 1.4M
20260508T12Z_MSC_CAPS_SpecificHumidity_IsbL-0650_RLatLon0.03_PT010H.grib2 2026-05-08 18:07 1.1M
20260508T12Z_MSC_CAPS_SpecificHumidity_IsbL-0700_RLatLon0.03_PT010H.grib2 2026-05-08 18:07 1.3M
20260508T12Z_MSC_CAPS_SpecificHumidity_IsbL-0750_RLatLon0.03_PT010H.grib2 2026-05-08 18:07 1.4M
20260508T12Z_MSC_CAPS_SpecificHumidity_IsbL-0800_RLatLon0.03_PT010H.grib2 2026-05-08 18:07 1.6M
20260508T12Z_MSC_CAPS_SpecificHumidity_IsbL-0850_RLatLon0.03_PT010H.grib2 2026-05-08 18:07 1.8M
20260508T12Z_MSC_CAPS_SpecificHumidity_IsbL-0875_RLatLon0.03_PT010H.grib2 2026-05-08 18:07 1.8M
20260508T12Z_MSC_CAPS_SpecificHumidity_IsbL-0900_RLatLon0.03_PT010H.grib2 2026-05-08 18:07 1.9M
20260508T12Z_MSC_CAPS_SpecificHumidity_IsbL-0925_RLatLon0.03_PT010H.grib2 2026-05-08 18:07 1.6M
20260508T12Z_MSC_CAPS_SpecificHumidity_IsbL-0950_RLatLon0.03_PT010H.grib2 2026-05-08 18:07 2.0M
20260508T12Z_MSC_CAPS_SpecificHumidity_IsbL-0970_RLatLon0.03_PT010H.grib2 2026-05-08 18:07 2.1M
20260508T12Z_MSC_CAPS_SpecificHumidity_IsbL-0985_RLatLon0.03_PT010H.grib2 2026-05-08 18:07 2.1M
20260508T12Z_MSC_CAPS_SpecificHumidity_IsbL-1000_RLatLon0.03_PT010H.grib2 2026-05-08 18:07 2.1M
20260508T12Z_MSC_CAPS_SpecificHumidity_IsbL-1015_RLatLon0.03_PT010H.grib2 2026-05-08 18:07 2.1M
20260508T12Z_MSC_CAPS_SpecificHumidity_Sfc_RLatLon0.03_PT010H.grib2 2026-05-08 18:07 2.1M
20260508T12Z_MSC_CAPS_StormRelativeHelicity_Sfc_RLatLon0.03_PT010H.grib2 2026-05-08 18:07 3.2M
20260508T12Z_MSC_CAPS_Thickness_IsbL-1000to0500_RLatLon0.03_PT010H.grib2 2026-05-08 18:07 420K
20260508T12Z_MSC_CAPS_TotalCloudCover_Sfc_RLatLon0.03_PT010H.grib2 2026-05-08 18:07 3.4M
20260508T12Z_MSC_CAPS_TurboclineDepth_Sfc_RLatLon0.03_PT010H.nc 2026-05-08 18:12 16M
20260508T12Z_MSC_CAPS_UpwardLongwaveRadiationFlux_NTAtm_RLatLon0.03_PT010H.grib2 2026-05-08 18:07 2.8M
20260508T12Z_MSC_CAPS_UpwardShortwaveRadiationFlux_NTAtm_RLatLon0.03_PT010H.grib2 2026-05-08 18:07 2.4M
20260508T12Z_MSC_CAPS_VerticalVelocity_IsbL-0250_RLatLon0.03_PT010H.grib2 2026-05-08 18:07 911K
20260508T12Z_MSC_CAPS_VerticalVelocity_IsbL-0500_RLatLon0.03_PT010H.grib2 2026-05-08 18:07 1.0M
20260508T12Z_MSC_CAPS_VerticalVelocity_IsbL-0700_RLatLon0.03_PT010H.grib2 2026-05-08 18:07 1.2M
20260508T12Z_MSC_CAPS_VerticalVelocity_IsbL-0850_RLatLon0.03_PT010H.grib2 2026-05-08 18:07 1.1M
20260508T12Z_MSC_CAPS_VerticalVelocity_IsbL-1000_RLatLon0.03_PT010H.grib2 2026-05-08 18:07 1.4M
20260508T12Z_MSC_CAPS_WindDir_AGL-10m_RLatLon0.03_PT010H.grib2 2026-05-08 18:07 2.4M
20260508T12Z_MSC_CAPS_WindDir_AGL-120m_RLatLon0.03_PT010H.grib2 2026-05-08 18:07 1.2M
20260508T12Z_MSC_CAPS_WindDir_AGL-40m_RLatLon0.03_PT010H.grib2 2026-05-08 18:07 1.3M
20260508T12Z_MSC_CAPS_WindDir_AGL-80m_RLatLon0.03_PT010H.grib2 2026-05-08 18:07 1.3M
20260508T12Z_MSC_CAPS_WindDir_IsbL-0050_RLatLon0.03_PT010H.grib2 2026-05-08 18:07 1.0M
20260508T12Z_MSC_CAPS_WindDir_IsbL-0100_RLatLon0.03_PT010H.grib2 2026-05-08 18:07 1.1M
20260508T12Z_MSC_CAPS_WindDir_IsbL-0150_RLatLon0.03_PT010H.grib2 2026-05-08 18:07 1.1M
20260508T12Z_MSC_CAPS_WindDir_IsbL-0175_RLatLon0.03_PT010H.grib2 2026-05-08 18:07 1.0M
20260508T12Z_MSC_CAPS_WindDir_IsbL-0200_RLatLon0.03_PT010H.grib2 2026-05-08 18:07 1.2M
20260508T12Z_MSC_CAPS_WindDir_IsbL-0225_RLatLon0.03_PT010H.grib2 2026-05-08 18:07 1.2M
20260508T12Z_MSC_CAPS_WindDir_IsbL-0250_RLatLon0.03_PT010H.grib2 2026-05-08 18:07 1.1M
20260508T12Z_MSC_CAPS_WindDir_IsbL-0275_RLatLon0.03_PT010H.grib2 2026-05-08 18:07 1.1M
20260508T12Z_MSC_CAPS_WindDir_IsbL-0300_RLatLon0.03_PT010H.grib2 2026-05-08 18:07 1.1M
20260508T12Z_MSC_CAPS_WindDir_IsbL-0350_RLatLon0.03_PT010H.grib2 2026-05-08 18:07 1.1M
20260508T12Z_MSC_CAPS_WindDir_IsbL-0400_RLatLon0.03_PT010H.grib2 2026-05-08 18:07 1.2M
20260508T12Z_MSC_CAPS_WindDir_IsbL-0450_RLatLon0.03_PT010H.grib2 2026-05-08 18:07 1.2M
20260508T12Z_MSC_CAPS_WindDir_IsbL-0500_RLatLon0.03_PT010H.grib2 2026-05-08 18:07 1.3M
20260508T12Z_MSC_CAPS_WindDir_IsbL-0550_RLatLon0.03_PT010H.grib2 2026-05-08 18:07 1.3M
20260508T12Z_MSC_CAPS_WindDir_IsbL-0600_RLatLon0.03_PT010H.grib2 2026-05-08 18:07 1.3M
20260508T12Z_MSC_CAPS_WindDir_IsbL-0650_RLatLon0.03_PT010H.grib2 2026-05-08 18:07 1.3M
20260508T12Z_MSC_CAPS_WindDir_IsbL-0700_RLatLon0.03_PT010H.grib2 2026-05-08 18:07 1.4M
20260508T12Z_MSC_CAPS_WindDir_IsbL-0750_RLatLon0.03_PT010H.grib2 2026-05-08 18:07 1.5M
20260508T12Z_MSC_CAPS_WindDir_IsbL-0800_RLatLon0.03_PT010H.grib2 2026-05-08 18:07 1.7M
20260508T12Z_MSC_CAPS_WindDir_IsbL-0850_RLatLon0.03_PT010H.grib2 2026-05-08 18:07 1.8M
20260508T12Z_MSC_CAPS_WindDir_IsbL-0875_RLatLon0.03_PT010H.grib2 2026-05-08 18:07 1.9M
20260508T12Z_MSC_CAPS_WindDir_IsbL-0900_RLatLon0.03_PT010H.grib2 2026-05-08 18:07 1.9M
20260508T12Z_MSC_CAPS_WindDir_IsbL-0925_RLatLon0.03_PT010H.grib2 2026-05-08 18:07 2.0M
20260508T12Z_MSC_CAPS_WindDir_IsbL-0950_RLatLon0.03_PT010H.grib2 2026-05-08 18:07 2.1M
20260508T12Z_MSC_CAPS_WindDir_IsbL-0970_RLatLon0.03_PT010H.grib2 2026-05-08 18:07 2.1M
20260508T12Z_MSC_CAPS_WindDir_IsbL-0985_RLatLon0.03_PT010H.grib2 2026-05-08 18:07 2.2M
20260508T12Z_MSC_CAPS_WindDir_IsbL-1000_RLatLon0.03_PT010H.grib2 2026-05-08 18:07 2.2M
20260508T12Z_MSC_CAPS_WindDir_IsbL-1015_RLatLon0.03_PT010H.grib2 2026-05-08 18:07 2.3M
20260508T12Z_MSC_CAPS_WindGust-Max_AGL-10m_RLatLon0.03_PT010H.grib2 2026-05-08 18:07 2.3M
20260508T12Z_MSC_CAPS_WindGust-Min_AGL-10m_RLatLon0.03_PT010H.grib2 2026-05-08 18:07 2.4M
20260508T12Z_MSC_CAPS_WindGust_AGL-10m_RLatLon0.03_PT010H.grib2 2026-05-08 18:07 2.5M
20260508T12Z_MSC_CAPS_WindSpeed_AGL-10m_RLatLon0.03_PT010H.grib2 2026-05-08 18:07 2.1M
20260508T12Z_MSC_CAPS_WindSpeed_AGL-120m_RLatLon0.03_PT010H.grib2 2026-05-08 18:07 1.2M
20260508T12Z_MSC_CAPS_WindSpeed_AGL-40m_RLatLon0.03_PT010H.grib2 2026-05-08 18:07 1.2M
20260508T12Z_MSC_CAPS_WindSpeed_AGL-80m_RLatLon0.03_PT010H.grib2 2026-05-08 18:07 1.2M
20260508T12Z_MSC_CAPS_WindSpeed_IsbL-0050_RLatLon0.03_PT010H.grib2 2026-05-08 18:07 846K
20260508T12Z_MSC_CAPS_WindSpeed_IsbL-0100_RLatLon0.03_PT010H.grib2 2026-05-08 18:07 925K
20260508T12Z_MSC_CAPS_WindSpeed_IsbL-0150_RLatLon0.03_PT010H.grib2 2026-05-08 18:07 1.1M
20260508T12Z_MSC_CAPS_WindSpeed_IsbL-0175_RLatLon0.03_PT010H.grib2 2026-05-08 18:07 1.0M
20260508T12Z_MSC_CAPS_WindSpeed_IsbL-0200_RLatLon0.03_PT010H.grib2 2026-05-08 18:07 941K
20260508T12Z_MSC_CAPS_WindSpeed_IsbL-0225_RLatLon0.03_PT010H.grib2 2026-05-08 18:07 962K
20260508T12Z_MSC_CAPS_WindSpeed_IsbL-0250_RLatLon0.03_PT010H.grib2 2026-05-08 18:07 1.0M
20260508T12Z_MSC_CAPS_WindSpeed_IsbL-0275_RLatLon0.03_PT010H.grib2 2026-05-08 18:07 1.0M
20260508T12Z_MSC_CAPS_WindSpeed_IsbL-0300_RLatLon0.03_PT010H.grib2 2026-05-08 18:07 1.0M
20260508T12Z_MSC_CAPS_WindSpeed_IsbL-0350_RLatLon0.03_PT010H.grib2 2026-05-08 18:07 1.0M
20260508T12Z_MSC_CAPS_WindSpeed_IsbL-0400_RLatLon0.03_PT010H.grib2 2026-05-08 18:07 1.0M
20260508T12Z_MSC_CAPS_WindSpeed_IsbL-0450_RLatLon0.03_PT010H.grib2 2026-05-08 18:07 1.0M
20260508T12Z_MSC_CAPS_WindSpeed_IsbL-0500_RLatLon0.03_PT010H.grib2 2026-05-08 18:07 1.4M
20260508T12Z_MSC_CAPS_WindSpeed_IsbL-0550_RLatLon0.03_PT010H.grib2 2026-05-08 18:07 1.6M
20260508T12Z_MSC_CAPS_WindSpeed_IsbL-0600_RLatLon0.03_PT010H.grib2 2026-05-08 18:07 1.5M
20260508T12Z_MSC_CAPS_WindSpeed_IsbL-0650_RLatLon0.03_PT010H.grib2 2026-05-08 18:07 1.5M
20260508T12Z_MSC_CAPS_WindSpeed_IsbL-0700_RLatLon0.03_PT010H.grib2 2026-05-08 18:07 1.5M
20260508T12Z_MSC_CAPS_WindSpeed_IsbL-0750_RLatLon0.03_PT010H.grib2 2026-05-08 18:07 1.6M
20260508T12Z_MSC_CAPS_WindSpeed_IsbL-0800_RLatLon0.03_PT010H.grib2 2026-05-08 18:07 1.7M
20260508T12Z_MSC_CAPS_WindSpeed_IsbL-0850_RLatLon0.03_PT010H.grib2 2026-05-08 18:07 1.7M
20260508T12Z_MSC_CAPS_WindSpeed_IsbL-0875_RLatLon0.03_PT010H.grib2 2026-05-08 18:07 1.7M
20260508T12Z_MSC_CAPS_WindSpeed_IsbL-0900_RLatLon0.03_PT010H.grib2 2026-05-08 18:07 1.7M
20260508T12Z_MSC_CAPS_WindSpeed_IsbL-0925_RLatLon0.03_PT010H.grib2 2026-05-08 18:07 1.8M
20260508T12Z_MSC_CAPS_WindSpeed_IsbL-0950_RLatLon0.03_PT010H.grib2 2026-05-08 18:07 2.0M
20260508T12Z_MSC_CAPS_WindSpeed_IsbL-0970_RLatLon0.03_PT010H.grib2 2026-05-08 18:07 2.0M
20260508T12Z_MSC_CAPS_WindSpeed_IsbL-0985_RLatLon0.03_PT010H.grib2 2026-05-08 18:07 2.0M
20260508T12Z_MSC_CAPS_WindSpeed_IsbL-1000_RLatLon0.03_PT010H.grib2 2026-05-08 18:07 2.0M
20260508T12Z_MSC_CAPS_WindSpeed_IsbL-1015_RLatLon0.03_PT010H.grib2 2026-05-08 18:07 2.1M
20260508T12Z_MSC_CAPS_WindU_AGL-10m_RLatLon0.03_PT010H.grib2 2026-05-08 18:07 1.9M
20260508T12Z_MSC_CAPS_WindU_AGL-120m_RLatLon0.03_PT010H.grib2 2026-05-08 18:07 889K
20260508T12Z_MSC_CAPS_WindU_AGL-40m_RLatLon0.03_PT010H.grib2 2026-05-08 18:07 919K
20260508T12Z_MSC_CAPS_WindU_AGL-80m_RLatLon0.03_PT010H.grib2 2026-05-08 18:07 892K
20260508T12Z_MSC_CAPS_WindU_IsbL-0050_RLatLon0.03_PT010H.grib2 2026-05-08 18:07 761K
20260508T12Z_MSC_CAPS_WindU_IsbL-0100_RLatLon0.03_PT010H.grib2 2026-05-08 18:07 777K
20260508T12Z_MSC_CAPS_WindU_IsbL-0150_RLatLon0.03_PT010H.grib2 2026-05-08 18:07 914K
20260508T12Z_MSC_CAPS_WindU_IsbL-0175_RLatLon0.03_PT010H.grib2 2026-05-08 18:07 730K
20260508T12Z_MSC_CAPS_WindU_IsbL-0200_RLatLon0.03_PT010H.grib2 2026-05-08 18:07 881K
20260508T12Z_MSC_CAPS_WindU_IsbL-0225_RLatLon0.03_PT010H.grib2 2026-05-08 18:07 905K
20260508T12Z_MSC_CAPS_WindU_IsbL-0250_RLatLon0.03_PT010H.grib2 2026-05-08 18:07 921K
20260508T12Z_MSC_CAPS_WindU_IsbL-0275_RLatLon0.03_PT010H.grib2 2026-05-08 18:07 925K
20260508T12Z_MSC_CAPS_WindU_IsbL-0300_RLatLon0.03_PT010H.grib2 2026-05-08 18:07 931K
20260508T12Z_MSC_CAPS_WindU_IsbL-0350_RLatLon0.03_PT010H.grib2 2026-05-08 18:07 734K
20260508T12Z_MSC_CAPS_WindU_IsbL-0400_RLatLon0.03_PT010H.grib2 2026-05-08 18:07 953K
20260508T12Z_MSC_CAPS_WindU_IsbL-0450_RLatLon0.03_PT010H.grib2 2026-05-08 18:07 970K
20260508T12Z_MSC_CAPS_WindU_IsbL-0500_RLatLon0.03_PT010H.grib2 2026-05-08 18:07 1.0M
20260508T12Z_MSC_CAPS_WindU_IsbL-0550_RLatLon0.03_PT010H.grib2 2026-05-08 18:07 1.0M
20260508T12Z_MSC_CAPS_WindU_IsbL-0600_RLatLon0.03_PT010H.grib2 2026-05-08 18:07 1.0M
20260508T12Z_MSC_CAPS_WindU_IsbL-0650_RLatLon0.03_PT010H.grib2 2026-05-08 18:07 1.0M
20260508T12Z_MSC_CAPS_WindU_IsbL-0700_RLatLon0.03_PT010H.grib2 2026-05-08 18:07 1.0M
20260508T12Z_MSC_CAPS_WindU_IsbL-0750_RLatLon0.03_PT010H.grib2 2026-05-08 18:07 1.1M
20260508T12Z_MSC_CAPS_WindU_IsbL-0800_RLatLon0.03_PT010H.grib2 2026-05-08 18:07 1.2M
20260508T12Z_MSC_CAPS_WindU_IsbL-0850_RLatLon0.03_PT010H.grib2 2026-05-08 18:07 1.3M
20260508T12Z_MSC_CAPS_WindU_IsbL-0875_RLatLon0.03_PT010H.grib2 2026-05-08 18:07 1.3M
20260508T12Z_MSC_CAPS_WindU_IsbL-0900_RLatLon0.03_PT010H.grib2 2026-05-08 18:07 1.3M
20260508T12Z_MSC_CAPS_WindU_IsbL-0925_RLatLon0.03_PT010H.grib2 2026-05-08 18:07 1.4M
20260508T12Z_MSC_CAPS_WindU_IsbL-0950_RLatLon0.03_PT010H.grib2 2026-05-08 18:07 1.4M
20260508T12Z_MSC_CAPS_WindU_IsbL-0970_RLatLon0.03_PT010H.grib2 2026-05-08 18:07 1.4M
20260508T12Z_MSC_CAPS_WindU_IsbL-0985_RLatLon0.03_PT010H.grib2 2026-05-08 18:07 1.4M
20260508T12Z_MSC_CAPS_WindU_IsbL-1000_RLatLon0.03_PT010H.grib2 2026-05-08 18:07 1.8M
20260508T12Z_MSC_CAPS_WindU_IsbL-1015_RLatLon0.03_PT010H.grib2 2026-05-08 18:07 1.9M
20260508T12Z_MSC_CAPS_WindV_AGL-10m_RLatLon0.03_PT010H.grib2 2026-05-08 18:07 1.9M
20260508T12Z_MSC_CAPS_WindV_AGL-120m_RLatLon0.03_PT010H.grib2 2026-05-08 18:07 884K
20260508T12Z_MSC_CAPS_WindV_AGL-40m_RLatLon0.03_PT010H.grib2 2026-05-08 18:07 1.2M
20260508T12Z_MSC_CAPS_WindV_AGL-80m_RLatLon0.03_PT010H.grib2 2026-05-08 18:07 1.1M
20260508T12Z_MSC_CAPS_WindV_IsbL-0050_RLatLon0.03_PT010H.grib2 2026-05-08 18:07 767K
20260508T12Z_MSC_CAPS_WindV_IsbL-0100_RLatLon0.03_PT010H.grib2 2026-05-08 18:07 943K
20260508T12Z_MSC_CAPS_WindV_IsbL-0150_RLatLon0.03_PT010H.grib2 2026-05-08 18:07 907K
20260508T12Z_MSC_CAPS_WindV_IsbL-0175_RLatLon0.03_PT010H.grib2 2026-05-08 18:07 718K
20260508T12Z_MSC_CAPS_WindV_IsbL-0200_RLatLon0.03_PT010H.grib2 2026-05-08 18:07 868K
20260508T12Z_MSC_CAPS_WindV_IsbL-0225_RLatLon0.03_PT010H.grib2 2026-05-08 18:07 893K
20260508T12Z_MSC_CAPS_WindV_IsbL-0250_RLatLon0.03_PT010H.grib2 2026-05-08 18:07 702K
20260508T12Z_MSC_CAPS_WindV_IsbL-0275_RLatLon0.03_PT010H.grib2 2026-05-08 18:07 707K
20260508T12Z_MSC_CAPS_WindV_IsbL-0300_RLatLon0.03_PT010H.grib2 2026-05-08 18:07 712K
20260508T12Z_MSC_CAPS_WindV_IsbL-0350_RLatLon0.03_PT010H.grib2 2026-05-08 18:07 725K
20260508T12Z_MSC_CAPS_WindV_IsbL-0400_RLatLon0.03_PT010H.grib2 2026-05-08 18:07 945K
20260508T12Z_MSC_CAPS_WindV_IsbL-0450_RLatLon0.03_PT010H.grib2 2026-05-08 18:07 961K
20260508T12Z_MSC_CAPS_WindV_IsbL-0500_RLatLon0.03_PT010H.grib2 2026-05-08 18:07 1.0M
20260508T12Z_MSC_CAPS_WindV_IsbL-0550_RLatLon0.03_PT010H.grib2 2026-05-08 18:07 1.0M
20260508T12Z_MSC_CAPS_WindV_IsbL-0600_RLatLon0.03_PT010H.grib2 2026-05-08 18:07 936K
20260508T12Z_MSC_CAPS_WindV_IsbL-0650_RLatLon0.03_PT010H.grib2 2026-05-08 18:07 971K
20260508T12Z_MSC_CAPS_WindV_IsbL-0700_RLatLon0.03_PT010H.grib2 2026-05-08 18:07 1.0M
20260508T12Z_MSC_CAPS_WindV_IsbL-0750_RLatLon0.03_PT010H.grib2 2026-05-08 18:07 1.1M
20260508T12Z_MSC_CAPS_WindV_IsbL-0800_RLatLon0.03_PT010H.grib2 2026-05-08 18:07 1.1M
20260508T12Z_MSC_CAPS_WindV_IsbL-0850_RLatLon0.03_PT010H.grib2 2026-05-08 18:07 1.2M
20260508T12Z_MSC_CAPS_WindV_IsbL-0875_RLatLon0.03_PT010H.grib2 2026-05-08 18:07 1.2M
20260508T12Z_MSC_CAPS_WindV_IsbL-0900_RLatLon0.03_PT010H.grib2 2026-05-08 18:07 1.3M
20260508T12Z_MSC_CAPS_WindV_IsbL-0925_RLatLon0.03_PT010H.grib2 2026-05-08 18:07 1.3M
20260508T12Z_MSC_CAPS_WindV_IsbL-0950_RLatLon0.03_PT010H.grib2 2026-05-08 18:07 1.3M
20260508T12Z_MSC_CAPS_WindV_IsbL-0970_RLatLon0.03_PT010H.grib2 2026-05-08 18:07 1.4M
20260508T12Z_MSC_CAPS_WindV_IsbL-0985_RLatLon0.03_PT010H.grib2 2026-05-08 18:07 1.8M
20260508T12Z_MSC_CAPS_WindV_IsbL-1000_RLatLon0.03_PT010H.grib2 2026-05-08 18:07 1.8M
20260508T12Z_MSC_CAPS_WindV_IsbL-1015_RLatLon0.03_PT010H.grib2 2026-05-08 18:07 1.8M